Погода в Намангане

Погода в Намангане : погода сейчас, прогноз погоды и архив. Всё, что Вы хотите узнать о погоде в Намангане!

Хотите узнать прогноз погоды в Намангане? Тогда Вам сюда: Погода в Намангане

Поиск расширенной информации на нашем сайте:

Другие новости

Новости СМИ2

Главная страница сайта

Новости сайта

02.10.2013

Напоминаем, что на нашем новом сайте вы можете получить высокодетализированные прогнозы погоды по пунктам России, СНГ и мира (включающие важные для авиации метеовеличины, такие как направление и скорость ветра, видимость, явления погоды, количество и форма облачности, нижняя и верхняя граница облачности), а также ознакомиться с разнообразными материалами по авиационной метеорологии и подборкой полезных ссылок на эту тему.

Сайт Метеоцентр.Азия посвящён разработке технологий оптимизации авиаметеорологического обслуживания, включая проектирование и перспективное создание нескольких автоматизированных авиаметеорологических систем:
- система выпуска высокодетальных прогностических карт явлений погоды для нижнего воздушного пространства по России и ближнему зарубежью;
- система верификации прогнозов TAF (выпускаемых синоптиками официальных АМСГ РФ и ближнего зарубежья) и AUTOTAF (выпускаемых сайтом Метеоцентр.Азия) - выявление ошибок, онлайн-сопоставление с фактической погодой METAR, автоматическое внесение коррективов в прогнозы при резком отклонении фактической погоды от прогноза, подсчёт оправдываемости прогнозов по элементам и в целом;
- система обработки, анализа и отображения авиаметеорологической информации для применения провайдерами метеорологической информации.

Рекомендуем: Тумбы в прихожую недорогие тумбы.

Погода в Намангане - сегодня

Время (UTC), дата Ветер
(°,м/с) 
Видим.   Явления Облачность Т
(°С)
Тd
(°С)
f(%) Тe
(°С)
Pmin
(гПа)
dP
(гПа)
Po
(мм)
O2
(г/м3)
Тmin Tmax R s Состояние
почвы
06 23.04.17 170 (Ю) 10 км    1/1 1500 м 
[Cu hum]
+21.6 +12.6 57 +27  1021.4  -0.9  726  268  +11.5         
09 23.04.17 240 (ЮЗ) 10 км    3/3 1500 м 
[Cu hum]
+23.5 +8.5 38 +24  1021.3  726  268           
12 23.04.17 280 (З) 10 км    1/1 1500 м кучево-дожд. 
[Cb calv]
+24.2 +8.5 37 +24  1019.4  -1.6  724  267           
15 23.04.17 340 (С) 10 км    ясно 
+21.5 +11.4 53 +25  1020  0.1  724  268    +25       
18 23.04.17 340 (С) 10 км    ясно 
+16.2 +8.6 61 +17  1022  0.9  725  274    +25       
21 23.04.17 340 (С) 10 км    ясно 
+14.3 +9 70 +15  1021.3  -1  724  276           
00 24.04.17 350 (С) 10 км    ясно 
+13.6 +8.2 70 +14  1019.8  -1.5  723  276           
03 24.04.17 060 (СВ) 10 км    ясно 
+17.6 +11.2 66 +23  1019.9  0.1  724  272           
06 24.04.17 100 (В) 10 км    ясно 
+23 +9.8 43 +25  1017.3  -1.5  723  267  +12.7         
09 24.04.17 160 (Ю) 10 км    ясно 
+26.5 +10.3 36 +29  1014.1  -2.4  721  263           
12 24.04.17 220 (ЮЗ) 10 км    3/0 верхняя 
[Ci]
+27.8 +7.3 27 +28  1011.9  -1.9  719  262           
15 24.04.17 340 (С) 10 км    3/0 верхняя 
[Ci]
+23.2 +9.2 41 +24  1012.3  -0.4  719  265    +28.3       
18 24.04.17 340 (С) 10 км    ясно 
+17.4 +9.2 59 +19  1013.8  0.4  719  271    +28.3       
21 24.04.17 360 (С) 10 км    ясно 
+16 +8.1 59 +17  1015.2  1.1  720  273           
00 25.04.17 350 (С) 10 км    ясно 
+14.6 +4.8 52 +15  1014  719  274           
03 25.04.17 070 (В) 10 км    ясно 
+20.3 +10.2 52 +23  1014.2  1.3  720  268           
06 25.04.17 160 (Ю) 10 км    ясно 
+25.2 +9 36 +26  1013.1  -0.2  720  264  +14         
09 25.04.17 210 (ЮЗ) 10 км    ясно 
+29.6 +7.6 25 +30  1010.4  -1.8  719  260           
12 25.04.17 180 (Ю) 10 км    ясно 
+30.4 +2.9 17 +30  1008.8  -1.4  718  260           
15 25.04.17 300 (СЗ) 10 км    ясно 
+26.2 +9.8 36 +28  1010.1  0.5  718  262    +31       
18 25.04.17 330 (СЗ) 10 км    ясно 
+19.9 +9.7 52 +23  1012.2  0.9  719  268    +31       
21 25.04.17 320 (СЗ) 10 км    ясно 
+17.5 +7.7 53 +19  1013.2  0.5  719  271           
00 26.04.17 350 (С) 10 км    ясно 
+16.4 +5.9 50 +17  1013.5  0.1  719  272           
03 26.04.17 тихо ()   10 км    ясно 
+21 +8.2 44 +21  1014.3  1.6  720  268           
06 26.04.17 190 (Ю) 97  10 км    ясно 
+25.8 +8.6 34 +26  1013.9  1.4  721  264  +15.4         
Время (UTC), дата Ветер
(°,м/с) 
Видим.   Явления Облачность Т
(°С)
Тd
(°С)
f(%) Тe
(°С)
Pmin
(гПа)
dP
(гПа)
Po
(мм)
O2
(г/м3)
Тmin Tmax R s Состояние
почвы

Для получения пояснительной информации подведите курсор к названию столбца.

ПОГОДА в Намангане - архив

Всё, что Вы хотите узнать о погоде в Намангане - удобно и подробно!

Выберите нужную дату (начиная с 1 января 2015* года) и нажмите кнопку "Найти".
Будут отображены архивные сводки погоды по пункту Наманган, начиная с указанной даты.


Отображать данные в формате CSV (для использования в таблицах Excel)


Внимание! Наш архив погоды предназначен исключительно для личного некоммерческого использования в познавательных целях. Если Вам необходимы официальные справки о состоянии погоды (для производственных, юридических, коммерческих и т.п. целей), обращайтесь в органы Росгидромета.

*Примечание: данная дата относится к архиву по метеостанциям СССР (Россия, СНГ, Балтия).
Архив по метеостанциям Зарубежной Европы и Азии (кроме Китая) хранится 10 дней, по другим регионам земного шара (Китай, Африка, Америка, Австралия, Океания) - 1 день.

Наманган - район местоположения метеостанции


Название, широта, долгота, высота метеостанции:
Наманган 41°ш. 71.6°д. 474 м над ур. моря [Узбекистан]

Дополнительная информация

В oтличие oт бoльшинства пoгoдных сайтoв мы публикуем пoдрoбную метеoинфoрмацию в детальнoм прoфессиoнальнoм фoрмате.

Характеристики температуры и влажнoсти вoздуха измеряются на высoте 2 м в тени вдали oт зданий и деревьев.
Скoрoсть ветра измеряется на высoте 10 м (на урoвне рoста челoвека скoрoсть ветра ниже в 1.5-2 раза). Если метеoстанция нахoдится в гoрoде или в лесу, тo скoрoсть ветра занижена на 2-4 м/с пo сравнению с oткрытым местoм. Скoрoсть ветра над акватoриями крупных рек и oзёр, а также на вершинах хoлмoв на 2-5 м/с выше, чем в oбычных услoвиях.
Атмoсфернoе давление в разных тoчках местнoсти мoжет значительнo oтличаться oт давления на метеoстанции, в зависимoсти oт услoвий рельефа (при пoдъёме на 10 м давление пoнижается примернo на 1 мм рт.ст.).